Location: Newark
(44.9486°N, 4.8961°E)
Time: 21:25:42
(UTC+00:00)

Tiangong 2 - Visible Passes

Search period start: 16 July 2019 00:00
Search period end: 26 July 2019 00:00
Orbit: 378 x 386 km, 42.8° (Epoch: 16 July)

Date Brightness Start Highest point End Pass type
(mag) Time Alt. Az. Time Alt. Az. Time Alt. Az.
16 Jul 1.2 20:37:33 10° W 20:40:37 53° S 20:42:39 19° ESE visible
16 Jul 3.8 22:14:26 10° WSW 22:14:47 12° WSW 22:14:47 12° WSW visible
17 Jul 1.9 21:13:56 10° W 21:16:47 32° SSW 21:16:58 32° S visible
18 Jul 1.6 20:13:33 10° W 20:16:33 44° SSW 20:19:08 13° ESE visible
18 Jul 3.7 21:50:51 10° WSW 21:51:17 12° WSW 21:51:17 12° WSW visible
19 Jul 2.5 20:50:04 10° WSW 20:52:38 23° SSW 20:53:28 21° S visible
21 Jul 3.2 20:26:24 10° WSW 20:28:24 16° SSW 20:30:03 11° S visible
23 Jul 3.8 20:03:59 10° SW 20:04:06 10° SSW 20:04:13 10° SSW visible
